Temperature
16 16 16 16 16 16 15 15 15 15 15 14 14 14 14 14 14 14 14 14 13 13 13 13 13 13 13 13 13 12 12 12 12 12 11 11 11 11 11 11 11 11 11
16 16 16 16 16 16 15 15 15 15 15 14 14 14 14 14 14 14 13 13 13 13 13 13 13 13 13 13 13 12 12 12 12 12 11 11 11 11 11 11 11 11 11
16 16 16 15 15 15 15 15 15 15 15 14 14 14 14 14 14 13 13 13 13 13 13 13 13 13 13 13 12 12 12 12 12 12 11 11 11 11 11 11 10 11 11
16 15 15 15 15 15 15 15 15 15 15 14 14 14 14 14 13 13 13 13 13 13 13 13 13 13 13 12 12 12 12 12 11 11 11 11 11 11 10 10 10 10 10
15 15 15 15 15 15 15 15 15 15 14 14 14 14 14 14 14 13 13 13 13 13 13 12 13 12 13 12 12 12 12 11 11 11 11 11 11 10 10 10 10 10 10
15 15 15 15 15 15 15 14 14 15 14 14 14 14 14 14 14 14 13 13 13 12 12 12 12 12 12 12 12 12 12 11 11 11 11 11 10 10 10 10 10 10 10
15 15 15 15 15 15 15 14 14 14 14 14 14 14 14 14 14 14 13 13 13 12 12 12 12 12 12 12 12 12 12 12 11 11 10 10 10 10 10 10 10 10 9
15 15 15 15 15 15 14 14 14 14 14 14 14 14 14 14 14 13 13 13 12 12 12 12 12 12 12 12 11 11 11 11 11 11 11 10 10 10 10 10 10 10 9
15 15 15 14 14 14 14 14 14 14 14 14 14 14 14 14 14 13 13 13 12 12 12 12 12 11 12 12 11 11 11 11 11 11 11 10 10 10 10 10 10 9 9
15 15 14 14 14 14 14 14 14 14 14 14 13 13 13 13 13 13 13 12 12 12 12 12 12 11 11 11 11 11 10 10 10 10 10 10 10 10 10 9 9 9 9
15 14 14 14 14 14 14 14 14 13 13 13 13 13 13 13 13 13 13 12 12 12 12 11 11 11 11 11 11 10 10 10 10 10 10 10 10 9 9 9 9 9 8
14 14 14 14 14 14 14 14 13 13 13 13 13 13 13 13 13 13 13 12 12 12 11 11 11 11 11 11 11 10 10 10 10 9 9 9 9 9 9 9 9 9 8
14 14 14 14 14 14 14 13 13 13 13 13 13 12 12 12 12 12 12 12 12 12 11 11 11 11 11 10 10 10 10 10 9 9 9 9 9 9 9 8 8 8 8
14 14 14 14 13 13 13 13 13 13 13 12 12 12 12 12 12 12 12 12 11 11 11 11 11 11 10 10 10 10 9 9 9 9 9 9 8 8 8 8 8 8 8
14 14 13 13 13 13 13 13 13 13 13 12 12 12 12 12 12 12 12 12 11 11 11 10 10 10 10 9 9 9 9 9 9 9 8 8 8 8 8 8 8 7 7
13 13 13 13 13 13 13 13 13 12 12 12 12 12 12 12 12 12 11 11 11 11 10 10 10 10 9 9 9 9 8 8 8 8 8 8 8 8 7 7 7 7 7
13 13 13 13 13 12 12 12 12 12 12 12 12 12 12 12 11 11 11 11 10 10 9 9 9 9 9 9 9 8 8 8 8 8 8 7 7 7 7 7 7 7 6
13 13 13 13 12 12 12 12 12 11 11 11 11 11 11 11 11 11 10 10 10 9 9 9 9 9 9 9 8 8 8 8 8 7 7 7 7 7 6 6 6 6 6
12 12 12 12 12 12 12 12 11 11 11 11 11 11 11 11 10 10 10 10 9 9 9 9 9 9 9 8 8 8 8 8 7 7 7 7 7 6 6 6 6 6 6
12 12 12 12 12 11 11 11 11 11 11 11 10 11 11 10 10 10 10 9 9 9 9 9 9 9 8 8 8 8 7 7 7 7 7 7 6 6 6 6 6 5 5
12 12 12 11 11 11 11 11 11 10 10 10 10 10 10 10 10 9 9 9 9 9 9 9 8 8 8 8 8 7 7 7 7 7 6 6 6 6 5 5 5 5 5
11 11 11 11 11 11 11 10 10 10 10 10 9 9 9 9 9 9 9 9 9 9 8 8 8 8 8 7 7 7 7 6 6 6 6 6 6 5 5 5 5 4 4
10 10 10 10 10 10 10 10 10 9 9 9 9 9 9 9 9 9 8 8 8 8 8 8 8 7 7 7 7 6 6 6 6 6 6 5 5 5 5 5 4 4 4
10 10 9 9 9 9 9 9 9 9 9 9 8 8 8 8 8 8 8 8 8 8 8 7 7 7 7 7 6 6 6 6 6 5 5 5 5 4 4 4 4 4 3
9 9 9 9 9 9 9 9 9 8 8 8 8 8 8 8 8 8 8 8 7 7 7 7 7 7 6 6 6 6 6 6 5 5 5 5 4 4 4 3 3 3 3
8 8 8 8 8 8 8 8 8 8 7 7 7 7 7 7 7 7 7 7 7 7 7 6 6 6 6 6 6 5 5 5 5 5 4 4 4 3 3 3 3 3 2
Wind_Speed
7 7 7 6 6 6 5 5 5 4 4 4 4 4 4 3 3 3 3 3 2 2 2 1 1 1 1 1 1 0 1 1 1 0 1 1 1 1 2 2 2 2 3
7 7 7 7 7 6 6 6 6 5 5 5 5 4 4 4 4 4 3 3 3 2 2 1 1 1 1 1 0 1 0 1 1 1 0 0 1 1 1 2 2 2 2
7 7 7 7 7 7 7 6 6 6 6 6 5 5 5 5 4 4 4 3 3 3 2 2 2 2 2 1 1 1 1 0 1 1 1 0 1 1 1 1 2 2 2
7 7 7 7 7 7 7 7 7 6 6 6 6 6 5 5 5 5 5 4 4 3 3 2 2 2 2 2 2 2 1 1 1 2 1 1 1 1 1 2 2 2 2
8 7 7 7 6 7 7 7 7 6 6 6 6 6 5 5 5 5 5 5 4 4 3 3 2 1 1 1 2 2 2 2 2 2 2 2 1 1 2 2 3 3 2
8 8 7 6 6 7 7 7 6 6 6 6 6 6 6 5 5 5 5 5 5 5 4 4 3 3 3 3 2 2 3 3 3 3 3 3 3 2 2 3 3 4 3
8 7 7 7 7 7 7 7 7 7 7 7 7 6 6 6 7 8 7 6 5 5 5 4 3 3 3 3 4 5 3 3 4 5 4 4 4 3 4 4 4 5 4
8 8 8 8 7 7 8 7 7 7 7 7 6 6 6 6 8 8 8 8 6 6 6 5 5 4 3 3 3 4 3 3 4 4 4 4 4 4 4 5 5 5 5
9 9 9 8 8 8 8 8 7 7 7 7 7 7 7 7 8 9 8 6 5 6 5 5 5 4 3 3 4 4 4 3 2 3 4 3 2 3 3 3 3 4 4
9 9 9 9 9 9 9 8 7 7 7 7 7 7 8 7 8 9 10 6 6 5 5 5 4 4 4 5 5 4 4 4 3 3 3 4 4 4 5 5 4 5 5
9 9 8 9 9 9 8 8 7 7 7 7 7 7 7 7 8 10 10 7 6 6 5 5 4 6 6 6 6 5 4 4 4 4 3 3 3 2 3 4 4 5 5
8 8 9 9 8 8 8 8 8 7 7 8 7 7 6 7 6 9 11 9 6 6 6 5 4 7 7 7 6 4 3 4 4 3 4 4 3 3 3 4 4 5 5
8 9 9 9 8 8 8 8 8 8 7 7 7 7 6 6 6 8 11 10 8 6 5 4 4 7 8 7 7 6 6 5 5 5 5 4 4 3 3 3 4 4 5
9 9 8 8 8 8 7 8 8 8 8 8 8 7 7 6 6 6 7 8 9 8 6 5 7 7 7 6 6 6 6 5 5 5 5 4 3 3 3 3 4 4 4
8 8 8 8 8 8 8 7 9 9 9 8 8 8 8 8 7 7 7 7 7 7 6 5 5 5 6 6 5 5 5 5 5 5 5 5 4 4 4 4 4 5 5
7 7 7 7 7 7 7 6 6 7 7 9 9 9 8 7 6 8 9 7 7 7 7 6 7 7 7 6 6 6 6 6 6 6 6 5 5 5 5 4 4 5 6
7 7 6 7 7 7 7 7 6 5 6 9 10 10 10 8 8 9 9 9 9 9 8 7 7 7 7 6 6 6 6 6 6 6 6 6 5 5 5 5 5 5 6
8 7 7 7 7 7 7 7 7 7 7 6 7 11 11 11 10 10 10 8 7 8 8 8 8 7 7 7 6 6 6 6 6 6 6 6 5 5 5 6 6 6 6
7 6 6 6 7 7 7 7 7 8 7 6 5 6 9 9 9 10 11 8 8 8 8 8 7 7 7 7 6 6 6 6 6 6 6 6 5 5 6 6 6 6 6
6 6 6 6 6 7 7 7 7 7 7 7 7 6 6 7 7 8 9 8 8 8 8 8 7 7 6 6 6 6 6 6 6 6 6 5 5 6 6 6 6 5 6
5 5 6 6 6 6 7 7 7 7 7 6 6 6 8 7 7 8 8 8 8 8 7 7 7 6 6 5 5 6 7 6 5 5 5 5 5 5 6 6 6 6 5
4 4 5 5 5 6 6 6 6 6 7 7 6 6 8 7 6 7 7 7 7 6 6 6 6 6 6 6 6 6 6 5 5 5 5 5 5 5 5 5 5 5 6
4 4 4 4 4 4 5 5 6 6 6 6 6 6 6 6 6 6 6 6 5 5 5 5 6 5 5 6 6 5 6 5 5 5 5 5 5 5 5 5 6 6 6
3 3 3 3 3 3 4 5 5 5 5 6 6 5 6 6 6 6 5 5 5 5 5 5 5 6 7 6 6 6 5 5 5 6 6 6 5 5 5 5 5 6 6
2 2 2 3 3 3 4 4 4 5 5 5 5 5 5 5 5 5 5 5 5 5 5 5 5 6 7 7 6 5 4 5 5 5 5 5 5 5 5 6 5 5 5
1 2 2 2 2 2 3 4 4 4 4 4 4 4 5 5 5 4 4 4 4 5 5 4 5 6 6 6 5 4 4 4 5 5 5 5 5 5 5 5 6 5 5
Wind_Direction
198 198 195 196 197 198 198 194 192 192 189 193 189 185 183 179 172 167 170 160 160 143 136 134 132 117 139 131 146 210 331 308 259 309 76 74 46 7 35 10 11 20 54
199 198 196 193 193 197 200 198 196 195 195 197 191 187 184 184 183 183 180 180 182 178 168 167 161 155 178 164 192 212 251 281 250 240 187 91 335 351 355 347 6 17 21
198 199 195 196 196 198 200 199 200 199 197 196 195 195 192 191 189 192 194 194 195 197 198 201 198 186 194 191 216 234 238 222 232 232 250 22 288 326 325 331 352 359 354
198 202 202 202 201 201 199 198 202 201 199 199 199 200 199 197 198 198 201 203 202 199 206 214 210 205 226 229 227 237 234 219 218 234 241 239 251 288 288 307 324 335 330
199 202 207 204 200 199 197 196 199 200 202 201 200 202 202 204 204 203 202 206 208 204 204 208 205 195 360 292 269 251 234 233 228 240 248 255 255 265 284 290 302 304 307
201 201 200 199 195 197 198 198 196 196 202 204 205 204 203 205 185 201 217 207 209 210 209 210 199 187 193 198 248 282 285 260 254 250 256 262 265 263 268 274 285 289 295
201 197 195 196 194 196 196 195 196 200 203 207 210 209 211 201 181 191 211 217 214 215 218 215 211 209 210 216 196 201 225 258 271 272 271 273 270 267 268 270 279 286 293
201 198 196 196 195 197 197 197 201 203 204 208 212 213 214 203 185 192 205 219 220 217 218 222 220 216 213 233 223 218 227 228 237 253 266 276 283 282 268 272 280 275 273
203 202 197 197 197 199 200 202 204 205 206 209 210 211 213 207 191 195 203 212 215 215 218 222 227 220 169 216 228 225 227 231 210 251 293 299 315 297 287 267 265 267 273
207 206 200 199 199 203 205 204 205 207 209 211 211 214 216 216 190 194 206 209 213 212 214 215 212 227 181 198 223 231 239 246 243 227 232 231 238 230 235 249 260 267 277
209 206 203 202 203 206 205 202 202 204 208 213 212 214 217 215 191 191 204 214 216 217 216 218 208 190 195 207 235 243 254 267 252 251 251 250 245 246 244 252 260 264 270
205 204 205 204 204 204 202 201 203 202 207 212 215 216 219 216 209 198 200 216 229 221 222 221 205 180 199 212 225 244 250 251 250 250 250 251 255 260 264 264 262 258 265
204 206 207 205 204 203 201 199 202 205 211 215 213 216 217 215 206 197 200 207 217 225 226 212 199 192 204 212 219 226 224 233 242 246 251 257 263 268 272 273 270 266 269
206 208 205 206 206 205 205 206 205 206 210 216 216 218 217 214 213 206 204 205 205 217 224 201 192 196 211 223 214 217 227 233 239 249 258 262 263 260 257 262 267 266 270
211 211 210 209 209 209 211 212 214 215 213 216 222 219 217 220 213 202 206 208 209 209 209 214 211 209 214 219 222 224 226 229 235 245 252 254 254 253 257 258 262 265 268
212 212 213 211 211 212 214 219 226 228 219 226 235 232 229 226 199 195 204 202 195 190 203 215 217 218 221 224 227 228 231 234 237 242 245 247 250 253 255 257 259 262 267
216 214 213 213 212 213 215 217 223 225 219 226 227 224 225 211 203 200 199 197 194 192 211 218 220 223 225 229 231 233 236 238 238 239 243 247 250 251 252 254 256 262 268
223 219 217 216 215 215 218 219 220 221 223 229 222 214 210 206 204 200 188 186 204 208 219 221 222 224 226 228 231 234 236 235 233 235 238 242 243 246 251 254 255 259 266
222 219 218 219 217 217 218 219 220 222 224 224 222 209 200 197 197 197 191 209 213 213 216 221 224 225 227 228 230 232 233 234 233 234 235 236 240 243 249 256 259 258 261
223 220 221 221 219 218 217 218 218 220 222 222 221 213 193 193 203 201 205 212 214 215 216 219 222 226 227 229 230 230 232 233 234 235 237 236 238 242 248 254 259 261 262
222 218 216 221 220 219 220 220 219 219 221 223 225 213 199 206 210 210 210 212 215 217 216 218 219 222 225 227 228 228 231 235 236 238 240 241 241 242 247 251 255 259 263
222 224 224 228 224 222 220 221 219 219 219 223 227 210 198 212 215 216 215 215 218 221 219 218 219 219 219 220 222 227 231 235 235 237 242 242 243 244 246 247 250 255 257
224 225 227 231 228 218 217 218 217 216 218 219 218 210 205 213 214 216 215 213 213 214 210 212 217 218 217 216 218 223 229 234 240 241 240 241 242 243 245 247 249 255 258
222 221 223 226 228 226 222 221 219 215 216 216 215 211 210 211 212 215 216 211 209 210 207 208 214 216 217 216 218 220 227 233 239 240 238 237 239 243 245 249 254 256 259
212 215 222 229 230 227 222 220 219 215 213 214 213 210 211 213 212 212 212 208 208 212 212 214 215 215 217 219 220 221 216 218 226 235 234 233 234 238 242 248 252 257 257
211 222 226 230 231 232 226 221 217 216 216 216 213 210 210 213 214 213 210 208 210 210 209 212 215 214 214 216 217 211 198 203 213 230 236 233 234 237 242 248 252 253 255
Height
1544 1546 1547 1549 1550 1551 1552 1553 1554 1555 1555 1556 1556 1557 1557 1557 1557 1557 1558 1558 1558 1558 1558 1558 1558 1558 1558 1558 1558 1558 1558 1558 1557 1557 1556 1554 1553 1552 1550 1549 1548 1547 1546
1541 1543 1545 1546 1548 1549 1550 1551 1552 1553 1554 1554 1555 1555 1556 1556 1556 1556 1556 1557 1557 1557 1557 1557 1557 1557 1557 1557 1557 1557 1556 1556 1556 1555 1554 1553 1552 1551 1550 1548 1547 1546 1545
1539 1540 1542 1544 1545 1546 1548 1549 1550 1551 1552 1552 1553 1554 1554 1554 1555 1555 1555 1556 1556 1556 1556 1556 1556 1556 1556 1556 1556 1556 1555 1555 1554 1554 1553 1552 1551 1550 1548 1547 1546 1545 1544
1536 1537 1539 1540 1542 1544 1545 1546 1548 1549 1550 1550 1551 1552 1552 1553 1553 1553 1554 1554 1554 1554 1554 1555 1555 1555 1555 1555 1554 1554 1554 1553 1553 1553 1552 1551 1550 1548 1548 1547 1545 1544 1542
1532 1534 1536 1537 1539 1540 1542 1543 1544 1546 1547 1548 1549 1550 1550 1550 1551 1551 1552 1552 1553 1553 1553 1553 1553 1553 1553 1553 1553 1552 1552 1552 1552 1551 1551 1550 1549 1547 1546 1545 1544 1543 1541
1529 1530 1532 1534 1535 1537 1538 1540 1541 1542 1544 1545 1546 1547 1548 1548 1548 1549 1550 1550 1550 1551 1551 1551 1551 1551 1551 1550 1550 1550 1550 1550 1550 1549 1549 1548 1547 1546 1544 1543 1542 1541 1540
1526 1527 1528 1530 1532 1533 1535 1536 1538 1539 1541 1542 1543 1544 1545 1545 1546 1547 1547 1548 1548 1548 1549 1549 1549 1549 1548 1548 1548 1547 1547 1547 1547 1547 1547 1546 1545 1544 1542 1541 1540 1539 1538
1522 1524 1525 1526 1528 1530 1531 1533 1534 1536 1537 1538 1540 1541 1542 1542 1543 1544 1544 1545 1545 1545 1546 1546 1546 1546 1546 1546 1546 1545 1545 1545 1544 1544 1543 1543 1542 1541 1540 1539 1538 1536 1535
1518 1520 1521 1522 1524 1525 1527 1529 1531 1532 1533 1535 1536 1537 1538 1539 1539 1540 1541 1541 1541 1542 1542 1543 1543 1543 1543 1543 1543 1543 1542 1542 1541 1541 1540 1539 1538 1537 1537 1536 1535 1534 1533
1514 1516 1517 1519 1520 1522 1523 1525 1527 1528 1529 1531 1532 1533 1534 1535 1536 1536 1537 1538 1538 1539 1539 1539 1539 1539 1539 1539 1540 1540 1540 1539 1539 1538 1537 1536 1536 1535 1534 1533 1532 1531 1530
1511 1512 1513 1515 1517 1518 1520 1521 1523 1524 1525 1527 1528 1529 1530 1531 1531 1532 1533 1534 1534 1535 1535 1535 1535 1535 1536 1536 1536 1537 1536 1536 1535 1535 1534 1534 1533 1532 1531 1530 1529 1528 1527
1506 1508 1509 1511 1513 1514 1516 1517 1518 1520 1521 1522 1523 1524 1525 1526 1527 1528 1529 1530 1530 1531 1531 1532 1532 1532 1532 1532 1533 1533 1533 1533 1532 1532 1531 1530 1529 1528 1527 1526 1525 1524 1523
1502 1503 1505 1507 1508 1510 1511 1512 1514 1515 1516 1517 1518 1519 1520 1521 1522 1523 1524 1525 1526 1526 1527 1527 1527 1528 1528 1528 1529 1529 1529 1529 1528 1528 1527 1527 1526 1525 1524 1522 1521 1520 1518
1498 1499 1500 1502 1504 1505 1507 1508 1509 1510 1511 1512 1513 1514 1515 1516 1517 1518 1519 1520 1521 1522 1522 1523 1523 1523 1524 1524 1524 1524 1525 1525 1524 1524 1523 1523 1522 1520 1519 1518 1517 1516 1514
1493 1494 1496 1497 1499 1500 1501 1502 1503 1505 1506 1507 1508 1509 1510 1511 1512 1513 1514 1515 1516 1517 1517 1518 1518 1519 1519 1519 1520 1520 1520 1520 1520 1519 1519 1518 1517 1516 1515 1514 1513 1512 1510
1488 1489 1491 1492 1493 1494 1495 1497 1498 1499 1500 1501 1502 1503 1504 1506 1507 1508 1509 1510 1511 1512 1512 1513 1513 1514 1514 1514 1515 1515 1515 1515 1514 1514 1514 1513 1512 1512 1511 1510 1509 1508 1506
1483 1484 1485 1486 1487 1488 1490 1491 1492 1493 1494 1495 1496 1497 1498 1499 1501 1502 1503 1504 1505 1506 1506 1507 1508 1508 1509 1509 1509 1509 1509 1509 1509 1509 1509 1508 1508 1507 1506 1505 1504 1503 1502
1478 1479 1480 1481 1482 1483 1484 1485 1486 1487 1488 1488 1490 1491 1492 1493 1495 1496 1498 1498 1499 1499 1500 1501 1502 1502 1503 1503 1503 1504 1504 1504 1503 1503 1503 1503 1503 1502 1501 1501 1500 1499 1498
1472 1473 1474 1475 1476 1477 1478 1480 1481 1481 1482 1483 1484 1485 1486 1487 1489 1490 1491 1492 1492 1493 1494 1495 1496 1496 1497 1497 1498 1498 1498 1498 1498 1498 1498 1497 1497 1497 1496 1496 1495 1494 1493
1466 1467 1468 1469 1470 1471 1472 1473 1474 1475 1476 1477 1478 1479 1480 1481 1482 1483 1484 1485 1486 1487 1488 1489 1489 1490 1491 1491 1491 1492 1492 1492 1492 1492 1492 1492 1492 1492 1492 1491 1490 1490 1488
1460 1461 1462 1463 1464 1465 1466 1467 1468 1469 1470 1471 1472 1473 1474 1476 1476 1477 1478 1479 1480 1481 1482 1482 1483 1484 1484 1485 1485 1486 1486 1486 1486 1486 1486 1486 1486 1486 1486 1486 1485 1484 1483
1455 1455 1456 1457 1458 1459 1460 1461 1462 1463 1464 1465 1466 1467 1468 1470 1470 1471 1472 1473 1474 1475 1476 1477 1477 1478 1478 1479 1479 1480 1480 1480 1480 1480 1480 1481 1481 1480 1480 1480 1479 1479 1478
1450 1451 1451 1452 1452 1453 1454 1455 1456 1457 1458 1459 1460 1461 1462 1463 1464 1465 1466 1467 1467 1468 1469 1470 1471 1471 1472 1472 1473 1473 1474 1474 1474 1475 1475 1475 1475 1474 1474 1474 1473 1473 1472
1446 1446 1446 1446 1447 1448 1448 1449 1450 1451 1452 1453 1454 1455 1456 1457 1458 1459 1460 1460 1461 1462 1463 1463 1464 1465 1465 1466 1466 1467 1467 1468 1468 1469 1469 1469 1469 1468 1468 1468 1467 1467 1466
1441 1441 1442 1442 1442 1442 1443 1444 1445 1446 1447 1448 1448 1449 1450 1451 1452 1453 1453 1454 1455 1455 1456 1457 1458 1458 1459 1459 1460 1460 1461 1461 1462 1462 1463 1463 1462 1462 1462 1462 1461 1461 1460
1437 1438 1438 1438 1438 1438 1439 1439 1440 1440 1441 1442 1443 1444 1445 1445 1446 1447 1447 1448 1449 1450 1450 1451 1452 1452 1453 1453 1454 1454 1455 1455 1456 1456 1456 1456 1456 1456 1456 1456 1456 1455 1455